Location: Dehesa de la Cepeda
(40.6574°N, 4.3013°W)
Time: 20:26:01
(UTC+00:00)

Vanguard 2 Rocket - Pass Details

Date: 11 August 2021
Orbit: 556 x 3324 km, 32.9° (Epoch: 19 September)

Event Time Altitude Azimuth Distance (km) Brightness Sun altitude
Rises 04:39:11 0° 242° (WSW) 4,966 - -8.5°
Exits shadow 04:42:57 - 236° (WSW) 3,659 9.3 -7.9°
Reaches altitude 10° 04:43:25 10° 235° (SW) 3,496 9.2 -7.8°
Maximum altitude 04:50:36 35° 174° (S) 1,507 7.9 -6.6°
Drops below altitude 10° 04:55:15 10° 109° (ESE) 2,233 9.7 -5.8°
Sets 04:57:23 0° 99° (E) 2,980 10.6 -5.4°
